Temp
75 75 75 75 75 76 75 75 75 76 75 76 75 76 76 77 77 77 78 78 77 77 77 76 77 76 79 76 76 76 76 75 76 74 75 75 75 75 77 75 74 73
75 75 77 76 75 77 76 76 76 76 76 76 76 76 76 77 78 78 77 78 78 78 77 77 77 77 76 76 75 75 75 76 75 79 76 75 74 75 76 76 75 74
75 75 75 75 76 76 77 77 76 76 77 77 77 77 78 78 78 77 77 78 78 78 77 77 77 77 77 76 75 76 76 75 75 75 76 75 75 75 75 76 74 75
75 76 76 77 77 77 77 76 76 76 77 77 77 78 79 80 79 78 77 79 77 78 78 77 77 78 77 76 75 76 75 75 75 75 75 75 75 75 76 74 76 75
77 76 76 77 77 77 77 77 77 77 77 78 78 78 78 77 78 78 77 77 77 77 77 77 77 77 77 76 76 76 76 76 76 75 74 74 75 75 77 76 75 75
77 76 76 77 77 77 77 77 78 78 78 78 78 79 78 78 78 78 78 78 78 78 78 78 77 78 77 76 76 76 76 77 76 75 75 75 76 76 78 77 75 75
78 77 77 77 78 78 78 78 78 79 79 79 78 78 79 79 78 78 78 79 79 78 79 78 77 77 77 77 76 76 75 75 75 75 75 75 75 76 76 76 75 75
78 78 78 77 78 78 78 78 78 78 79 78 79 79 79 80 79 80 79 79 79 78 78 78 78 77 78 77 76 76 76 78 77 75 74 75 74 74 75 76 75 74
79 78 78 78 79 79 79 80 80 79 80 79 80 80 80 80 80 80 79 78 79 78 77 78 77 78 78 77 77 76 76 77 78 76 75 75 75 75 75 75 75 75
78 78 79 79 79 80 80 81 81 81 80 80 81 81 81 80 80 80 79 78 78 78 77 77 77 78 78 78 77 77 77 76 76 76 76 76 76 76 76 75 75 74
78 78 79 79 80 80 81 81 82 82 81 81 82 82 82 81 80 79 78 78 79 78 77 76 76 76 76 77 77 77 77 77 77 77 77 76 77 76 78 76 76 75
77 78 78 79 80 81 81 82 82 82 82 82 82 82 82 82 81 80 80 78 77 76 75 75 74 75 74 75 76 77 76 77 77 77 78 77 77 77 77 77 77 76
77 77 78 79 80 80 81 81 82 83 83 82 82 82 82 82 82 81 80 78 76 75 75 74 75 75 74 74 74 75 75 76 76 77 78 78 78 78 79 78 78 78
74 72 71 71 72 73 76 80 82 82 82 82 82 81 82 82 83 82 79 77 76 76 75 74 74 75 74 74 74 75 75 75 75 76 77 78 78 78 79 79 79 79
70 70 71 72 72 72 71 72 75 78 80 80 81 82 83 83 81 81 77 75 76 75 75 75 75 75 74 73 73 74 74 76 76 77 76 76 77 78 79 78 79 80
70 71 71 71 71 72 72 73 73 74 76 78 79 80 81 80 79 79 78 77 75 74 75 75 75 75 77 78 77 75 73 75 76 76 76 76 77 77 78 79 79 79
71 71 71 71 72 72 72 73 73 73 73 73 75 78 79 78 79 78 78 77 76 75 74 75 76 76 77 71 72 76 76 74 74 74 75 75 76 76 77 78 79 79
71 71 71 71 71 72 72 73 73 72 72 72 72 73 74 76 77 77 76 76 76 76 76 76 75 77 70 69 70 71 76 75 74 74 75 75 76 76 77 77 78 79
71 71 71 70 71 72 72 72 72 72 71 72 71 72 72 71 72 73 73 73 75 75 75 75 76 72 68 68 67 67 68 72 73 74 74 75 76 75 76 76 76 76
71 71 71 70 71 71 71 71 72 72 72 72 72 71 71 71 71 71 71 71 73 73 72 74 72 65 63 64 64 64 65 67 71 74 75 75 75 75 76 75 74 74
70 70 70 70 70 70 70 70 70 70 71 72 72 71 71 70 70 71 72 73 74 74 73 72 67 59 60 62 61 61 63 68 71 73 75 74 72 73 74 73 74 76
69 69 69 70 70 69 69 69 69 69 69 71 71 71 71 71 71 72 72 72 72 72 70 66 64 58 58 59 59 60 63 71 71 72 72 71 72 72 72 72 73 74
68 68 68 68 69 69 68 68 68 68 68 70 70 70 70 70 70 70 71 71 71 69 67 65 64 60 56 57 57 58 63 70 71 72 71 72 72 73 73 73 74 73
68 67 67 67 67 67 67 68 69 69 69 71 70 69 69 70 70 69 69 70 70 67 68 65 64 61 55 55 56 56 63 68 71 72 72 72 72 73 73 74 74 78
67 68 67 67 67 67 67 67 68 69 70 70 69 69 69 69 70 69 69 68 68 69 71 64 63 63 56 54 55 56 63 67 70 72 72 72 72 72 73 73 73 76
69 69 68 67 66 66 66 66 69 69 69 69 69 69 69 69 70 69 67 66 66 65 64 64 62 62 60 53 54 55 59 68 68 70 71 71 71 72 70 69 67 66
MSLP
1018.40 1018.52 1018.68 1018.84 1018.92 1018.92 1019.08 1019.32 1019.36 1019.48 1019.56 1019.60 1019.80 1019.80 1019.80 1019.60 1019.52 1019.68 1019.68 1019.72 1019.80 1019.92 1019.96 1019.96 1019.96 1020.04 1020.00 1020.04 1020.08 1020.12 1020.16 1020.20 1020.20 1020.16 1020.24 1020.28 1020.40 1020.44 1020.52 1020.44 1020.48 1020.56
1018.28 1018.40 1018.52 1018.64 1018.76 1018.76 1018.88 1018.92 1019.08 1019.20 1019.32 1019.36 1019.36 1019.40 1019.40 1019.44 1019.40 1019.48 1019.60 1019.68 1019.68 1019.76 1019.80 1019.88 1019.92 1019.96 1020.00 1020.08 1020.12 1020.24 1020.28 1020.28 1020.32 1020.08 1020.28 1020.32 1020.32 1020.32 1020.40 1020.32 1020.36 1020.36
1018.16 1018.36 1018.52 1018.68 1018.76 1018.80 1018.80 1018.84 1018.88 1019.00 1019.08 1019.08 1019.12 1019.20 1019.28 1019.20 1019.36 1019.32 1019.40 1019.48 1019.60 1019.60 1019.72 1019.76 1019.84 1019.84 1019.88 1019.92 1020.04 1020.20 1020.28 1020.32 1020.40 1020.20 1020.28 1020.36 1020.32 1020.44 1020.32 1020.24 1020.24 1020.24
1018.04 1018.12 1018.28 1018.40 1018.48 1018.60 1018.60 1018.80 1018.92 1018.96 1018.92 1019.12 1019.12 1019.00 1019.04 1019.08 1019.12 1019.28 1019.32 1019.32 1019.48 1019.52 1019.56 1019.64 1019.68 1019.72 1019.76 1019.80 1019.96 1020.16 1020.20 1020.28 1020.24 1020.24 1020.36 1020.36 1020.36 1020.40 1020.36 1020.28 1020.28 1020.24
1017.88 1018.00 1018.04 1018.16 1018.24 1018.32 1018.48 1018.72 1018.84 1018.92 1018.96 1018.88 1018.88 1018.88 1019.00 1019.08 1019.16 1019.20 1019.24 1019.32 1019.32 1019.44 1019.48 1019.56 1019.56 1019.64 1019.68 1019.84 1019.96 1020.16 1020.20 1020.28 1020.16 1020.24 1020.44 1020.56 1020.36 1020.36 1020.28 1020.28 1020.36 1020.44
1017.64 1017.72 1017.84 1018.00 1018.12 1018.28 1018.52 1018.60 1018.64 1018.72 1018.80 1018.88 1018.84 1018.76 1018.84 1018.88 1019.04 1019.08 1019.12 1019.24 1019.28 1019.32 1019.44 1019.44 1019.56 1019.60 1019.64 1019.80 1019.96 1020.08 1020.16 1020.28 1020.16 1020.24 1020.44 1020.56 1020.40 1020.24 1020.20 1020.20 1020.32 1020.44
1017.56 1017.68 1017.80 1017.80 1017.96 1018.08 1018.28 1018.36 1018.36 1018.44 1018.48 1018.48 1018.52 1018.72 1018.68 1018.84 1018.92 1018.92 1018.96 1019.04 1019.16 1019.24 1019.32 1019.40 1019.52 1019.60 1019.56 1019.72 1019.92 1020.04 1020.04 1020.08 1020.12 1020.24 1020.44 1020.44 1020.40 1020.32 1020.16 1020.16 1020.24 1020.32
1017.32 1017.40 1017.56 1017.72 1017.88 1017.96 1018.16 1018.20 1018.28 1018.32 1018.24 1018.32 1018.56 1018.44 1018.44 1018.64 1018.72 1018.72 1018.76 1018.88 1019.04 1019.16 1019.20 1019.24 1019.28 1019.36 1019.40 1019.52 1019.76 1019.92 1019.96 1019.88 1020.00 1020.16 1020.36 1020.40 1020.36 1020.44 1020.20 1020.08 1020.08 1020.24
1017.12 1017.36 1017.48 1017.68 1017.84 1017.92 1018.04 1018.04 1018.08 1018.12 1018.04 1018.24 1018.32 1018.28 1018.20 1018.32 1018.44 1018.52 1018.64 1018.76 1018.92 1019.00 1019.08 1019.16 1019.16 1019.20 1019.20 1019.36 1019.52 1019.64 1019.76 1019.72 1019.72 1019.88 1020.08 1020.24 1020.28 1020.24 1020.12 1019.96 1020.12 1020.12
1017.08 1017.20 1017.44 1017.64 1017.84 1017.80 1017.88 1017.84 1017.84 1017.92 1017.88 1018.04 1018.04 1018.00 1018.16 1018.08 1018.12 1018.28 1018.44 1018.64 1018.84 1018.92 1018.96 1019.00 1019.04 1019.04 1019.08 1019.16 1019.24 1019.36 1019.48 1019.52 1019.52 1019.60 1019.72 1019.80 1019.88 1019.88 1019.84 1019.84 1019.92 1020.00
1017.00 1017.12 1017.40 1017.56 1017.72 1017.68 1017.72 1017.64 1017.64 1017.68 1017.68 1017.80 1017.88 1017.96 1017.88 1017.92 1018.04 1018.04 1018.32 1018.52 1018.72 1018.76 1018.84 1018.96 1019.04 1019.08 1019.24 1019.24 1019.20 1019.20 1019.36 1019.44 1019.44 1019.40 1019.44 1019.48 1019.48 1019.48 1019.44 1019.52 1019.64 1019.76
1016.92 1017.04 1017.20 1017.36 1017.44 1017.48 1017.48 1017.44 1017.44 1017.48 1017.52 1017.52 1017.52 1017.72 1017.68 1017.68 1017.84 1017.96 1018.08 1018.32 1018.40 1018.40 1018.44 1018.56 1018.60 1018.64 1018.72 1018.80 1018.84 1018.84 1018.92 1019.04 1019.16 1019.32 1019.24 1019.20 1019.20 1019.24 1019.24 1019.20 1019.36 1019.36
1016.88 1016.96 1017.00 1017.08 1017.08 1017.12 1017.08 1017.16 1017.20 1017.20 1017.24 1017.36 1017.24 1017.32 1017.44 1017.56 1017.56 1017.72 1017.76 1018.00 1018.08 1018.08 1018.20 1018.32 1018.44 1018.44 1018.52 1018.56 1018.60 1018.64 1018.68 1018.76 1018.88 1018.96 1019.08 1019.12 1019.00 1018.92 1018.84 1018.88 1018.92 1018.96
1016.92 1017.00 1017.16 1017.36 1017.48 1017.52 1017.52 1017.28 1017.04 1017.00 1017.00 1016.92 1017.00 1017.20 1017.28 1017.28 1017.36 1017.44 1017.56 1017.68 1017.76 1017.80 1017.84 1018.00 1018.16 1018.36 1018.44 1018.48 1018.52 1018.56 1018.72 1018.84 1018.76 1018.76 1018.84 1018.84 1018.80 1018.68 1018.56 1018.56 1018.56 1018.56
1016.80 1016.84 1016.88 1017.00 1017.24 1017.32 1017.44 1017.68 1017.68 1017.36 1017.04 1016.84 1016.88 1016.92 1016.88 1016.88 1016.92 1017.12 1017.48 1017.68 1017.64 1017.64 1017.76 1017.88 1018.04 1018.16 1018.20 1018.28 1018.40 1018.52 1018.60 1018.72 1018.68 1018.72 1018.68 1018.72 1018.64 1018.56 1018.44 1018.36 1018.32 1018.28
1016.48 1016.60 1016.64 1016.68 1016.92 1017.12 1017.20 1017.28 1017.36 1017.32 1017.24 1017.12 1016.84 1016.72 1016.68 1016.68 1016.80 1016.92 1017.12 1017.36 1017.56 1017.60 1017.64 1017.76 1017.88 1017.80 1017.76 1017.80 1017.96 1018.16 1018.36 1018.44 1018.52 1018.60 1018.60 1018.56 1018.60 1018.56 1018.44 1018.24 1018.12 1018.04
1016.16 1016.28 1016.36 1016.48 1016.48 1016.60 1016.64 1016.72 1016.80 1016.88 1017.00 1017.04 1016.92 1016.68 1016.56 1016.52 1016.64 1016.88 1017.00 1017.04 1017.20 1017.32 1017.52 1017.56 1017.56 1017.44 1017.40 1017.56 1017.68 1017.80 1018.00 1018.28 1018.52 1018.56 1018.48 1018.52 1018.52 1018.52 1018.52 1018.28 1018.00 1017.84
1015.96 1016.08 1016.24 1016.40 1016.40 1016.40 1016.44 1016.40 1016.40 1016.52 1016.64 1016.72 1016.72 1016.80 1016.72 1016.56 1016.60 1016.60 1016.68 1016.88 1017.00 1017.08 1017.24 1017.28 1017.28 1017.12 1017.24 1017.44 1017.60 1017.72 1017.84 1018.00 1018.16 1018.40 1018.44 1018.48 1018.44 1018.36 1018.28 1018.20 1018.04 1017.84
1015.88 1015.96 1016.16 1016.28 1016.24 1016.12 1016.20 1016.48 1016.56 1016.52 1016.48 1016.48 1016.60 1016.60 1016.60 1016.88 1017.44 1017.36 1017.28 1017.20 1017.16 1017.12 1017.08 1017.12 1017.08 1017.04 1017.16 1017.40 1017.64 1017.88 1018.04 1018.12 1018.16 1018.12 1018.28 1018.24 1018.16 1018.12 1018.08 1018.08 1018.00 1017.92
1016.04 1016.08 1016.20 1016.16 1016.16 1016.16 1016.32 1016.48 1016.48 1016.36 1016.28 1016.36 1016.60 1016.76 1016.84 1016.88 1017.00 1017.16 1017.04 1017.16 1017.48 1017.76 1017.84 1017.56 1017.40 1017.60 1017.80 1017.92 1018.00 1018.08 1018.08 1018.08 1017.96 1017.84 1017.80 1017.80 1017.88 1017.88 1017.84 1018.00 1018.12 1018.44
1016.32 1016.28 1016.20 1016.08 1016.16 1016.40 1016.64 1016.76 1016.72 1016.72 1016.84 1016.88 1016.84 1016.92 1016.84 1016.68 1016.52 1016.52 1016.40 1016.32 1016.64 1016.92 1017.36 1017.88 1018.48 1018.44 1018.24 1018.16 1018.16 1018.12 1018.00 1017.80 1017.64 1017.56 1017.56 1017.60 1017.60 1017.56 1017.56 1017.48 1017.24 1017.52
1016.60 1016.64 1016.52 1016.36 1016.48 1016.68 1016.88 1017.08 1017.16 1017.32 1017.40 1017.28 1017.12 1017.00 1016.80 1016.68 1016.72 1016.76 1017.08 1017.40 1017.44 1017.52 1017.92 1018.44 1018.44 1018.32 1018.16 1018.08 1018.00 1017.88 1017.80 1017.52 1017.32 1017.36 1017.68 1018.04 1017.84 1017.40 1017.32 1017.40 1017.48 1017.64
1016.96 1016.96 1016.84 1016.76 1016.84 1017.00 1017.20 1017.20 1017.20 1017.28 1017.24 1017.00 1017.20 1017.20 1017.20 1017.20 1017.12 1017.00 1016.96 1017.08 1017.28 1017.36 1017.48 1017.84 1017.92 1017.96 1018.08 1018.00 1017.88 1017.84 1017.72 1017.52 1017.40 1017.40 1017.32 1017.16 1017.24 1017.36 1017.40 1017.36 1017.40 1017.48
1017.04 1016.96 1017.12 1017.24 1017.32 1017.40 1017.44 1017.40 1017.20 1017.16 1017.12 1016.92 1017.24 1017.48 1017.60 1017.16 1016.96 1017.24 1017.40 1017.52 1017.68 1017.76 1017.40 1017.48 1017.84 1018.24 1018.40 1018.24 1018.08 1017.96 1017.84 1017.72 1017.56 1017.60 1017.56 1017.36 1017.28 1017.16 1016.96 1016.96 1017.12 1017.28
1017.48 1017.12 1016.92 1016.96 1017.20 1017.48 1017.44 1017.32 1017.24 1017.12 1016.96 1016.92 1017.16 1017.28 1017.28 1017.16 1017.24 1017.40 1017.64 1017.52 1017.56 1017.72 1017.68 1018.12 1018.44 1018.48 1018.52 1018.36 1018.12 1017.96 1017.68 1017.52 1017.48 1017.52 1017.56 1017.36 1017.20 1017.20 1017.04 1017.12 1017.36 1017.36
1017.52 1017.56 1017.40 1017.24 1017.16 1017.08 1017.12 1017.20 1017.20 1017.28 1017.36 1017.24 1017.12 1016.96 1017.00 1017.12 1017.20 1017.44 1017.52 1017.84 1018.16 1018.28 1018.44 1018.52 1018.48 1018.48 1018.56 1018.44 1018.20 1017.92 1017.68 1017.44 1017.32 1017.32 1017.36 1017.28 1017.16 1017.16 1017.40 1017.56 1017.72 1017.88
Wind_Speed
5 4 6 6 5 5 6 6 5 6 5 5 6 5 6 5 4 4 4 4 4 3 3 3 3 3 3 2 2 1 2 2 1 2 1 1 1 1 1 1 2 2
5 4 3 4 4 4 4 5 6 6 6 5 6 5 4 3 4 4 4 4 4 4 3 3 3 3 3 3 2 2 2 1 2 0 1 1 2 1 2 2 3 2
5 4 5 5 6 5 6 5 5 5 5 6 4 4 5 4 4 4 4 5 4 4 4 4 3 3 3 3 2 1 2 2 3 2 1 3 2 2 3 2 3 3
6 6 5 5 5 6 5 4 4 4 3 4 5 5 5 4 4 4 4 5 4 4 4 3 4 4 3 3 2 2 2 3 3 1 2 2 2 2 3 2 2 3
7 6 5 5 5 5 4 5 6 5 5 6 4 4 4 4 4 4 4 4 4 4 4 4 4 4 3 3 3 3 3 4 3 2 2 3 3 2 3 2 3 3
6 6 6 5 5 5 6 6 6 6 5 5 6 4 5 5 5 4 4 4 4 5 5 4 4 4 3 3 3 4 4 4 4 3 3 4 4 3 3 2 2 3
8 7 7 6 5 6 6 6 6 6 6 6 4 5 4 5 5 5 5 5 5 5 5 5 5 5 4 4 4 4 4 4 3 3 3 4 3 5 3 3 3 3
8 7 6 5 6 6 6 6 6 6 5 4 5 6 5 6 6 5 5 5 5 5 5 5 5 5 5 5 5 5 5 4 4 4 4 4 3 4 4 4 3 3
7 7 6 6 7 6 6 6 6 6 5 5 6 6 5 6 6 6 6 5 5 5 5 5 6 6 5 5 6 6 6 5 5 4 5 5 4 5 5 4 3 3
7 6 7 7 7 6 6 6 6 5 5 6 6 6 6 6 6 6 5 5 6 5 5 5 6 6 5 6 6 6 6 6 6 5 5 5 6 6 5 5 5 4
7 7 7 7 7 6 7 6 6 5 5 6 7 7 7 6 6 5 5 5 6 5 3 2 0 0 0 0 0 0 2 4 5 5 6 6 6 6 6 5 5 5
7 6 7 7 7 7 7 7 6 6 6 6 7 8 7 7 7 6 6 6 4 5 5 5 5 5 6 6 6 5 3 2 3 5 6 6 6 6 6 5 5 5
6 5 5 6 7 8 7 6 6 7 7 7 7 8 8 8 7 7 6 5 7 7 6 6 5 5 5 4 5 5 6 5 5 5 6 6 6 7 7 6 6 6
4 7 7 6 6 7 6 5 6 7 7 7 6 7 8 8 8 8 5 7 8 8 7 6 6 5 5 5 5 6 5 5 6 5 5 6 7 7 7 6 6 6
6 6 5 4 3 1 1 3 6 6 5 6 5 6 7 8 6 5 6 7 7 7 6 6 6 6 5 6 6 5 4 6 7 6 6 6 6 7 7 7 6 6
6 7 7 7 8 7 6 4 2 2 4 6 6 6 6 6 6 7 8 9 8 8 7 7 7 6 8 13 10 6 6 6 6 6 6 5 6 6 8 7 7 6
6 7 8 8 7 7 7 7 6 2 1 3 5 6 7 6 7 8 8 8 9 8 8 7 7 7 13 14 14 13 7 6 6 6 5 6 6 6 7 8 7 6
6 6 6 6 6 6 5 5 4 4 4 2 1 3 3 3 7 9 8 7 7 7 7 7 7 8 12 13 12 12 10 6 5 6 6 6 6 6 6 6 7 6
6 6 6 6 7 6 5 4 4 4 3 2 1 0 1 2 4 4 2 2 2 6 7 5 5 5 10 10 8 6 5 5 5 6 6 7 7 7 6 6 6 6
4 4 5 5 5 5 5 4 4 4 3 1 1 3 3 5 5 4 2 1 1 3 3 4 1 6 6 5 4 3 4 6 5 6 7 7 5 3 2 1 4 6
3 3 5 6 5 3 4 3 2 2 3 3 3 3 3 4 7 8 8 7 3 4 3 2 6 9 6 5 5 6 7 7 5 5 5 3 3 5 6 7 7 6
2 2 3 4 2 1 1 2 2 4 5 3 1 2 2 2 0 2 3 5 5 5 4 5 0 4 2 2 5 7 10 6 5 5 3 3 4 7 7 6 6 4
2 0 2 2 1 4 5 3 1 2 1 3 2 1 2 3 3 2 2 3 4 4 4 3 1 3 4 5 5 7 5 5 3 3 6 9 7 3 2 5 7 6
1 0 1 3 3 3 5 3 2 3 4 5 5 2 3 3 3 3 5 5 4 3 3 4 1 5 7 8 9 8 6 5 4 3 5 7 6 6 6 6 8 14
0 0 1 0 0 2 1 1 1 3 4 3 1 2 3 3 2 3 5 3 4 2 2 5 3 3 8 9 9 9 5 2 3 4 5 7 6 7 6 5 2 7
1 0 1 0 0 2 3 2 0 1 3 4 3 1 2 3 3 6 6 4 5 4 4 3 3 3 5 8 10 11 10 3 3 3 4 4 5 5 5 5 5 5
Wind_Direction
187 184 187 189 193 192 185 189 197 195 202 195 195 208 205 215 211 206 212 212 211 214 234 241 237 229 230 211 222 232 212 207 208 181 183 166 222 220 264 231 202 217
197 190 194 194 198 198 198 195 194 196 202 202 205 202 211 210 221 210 216 217 216 216 213 219 221 220 213 211 223 228 266 256 266 243 210 243 254 210 239 234 233 207
197 195 198 197 204 205 201 201 198 199 197 207 205 201 210 207 216 212 216 215 219 225 212 207 207 215 213 212 213 246 259 265 265 289 287 256 251 239 251 238 235 212
205 202 202 203 207 209 203 194 209 209 203 197 208 207 206 213 207 211 213 218 214 223 218 205 209 206 207 212 198 226 244 253 254 302 290 301 273 255 266 251 253 258
207 207 205 205 206 206 196 199 206 204 206 211 210 209 206 217 215 213 210 216 213 221 216 215 209 210 203 210 203 221 232 240 254 237 251 267 266 250 267 255 282 282
209 208 205 203 201 195 198 203 208 202 208 210 215 206 211 211 217 216 211 213 211 213 217 214 210 213 200 206 204 220 226 234 246 227 238 246 263 255 263 273 282 290
203 203 207 202 201 201 200 205 207 207 207 213 204 215 211 214 219 221 215 212 210 209 213 212 211 215 206 200 202 219 226 226 237 226 234 249 248 273 272 273 268 261
201 201 204 199 203 204 206 204 207 208 208 207 214 222 208 220 219 220 216 212 210 213 212 212 211 214 213 199 208 218 229 219 225 220 229 246 255 265 272 265 260 263
196 200 201 204 208 209 211 208 208 213 207 211 220 224 216 217 220 218 216 210 214 214 211 214 212 214 213 208 215 218 224 229 222 216 217 231 237 245 253 259 264 256
196 199 202 209 215 217 217 215 211 211 209 216 223 226 224 222 217 218 213 212 215 214 209 213 213 213 213 211 218 219 223 229 231 225 220 222 225 233 238 236 239 250
196 193 201 208 217 219 223 220 219 219 212 217 221 227 228 224 225 216 211 206 215 214 205 195 216 20 284 272 303 283 276 273 257 239 231 227 225 229 235 231 233 231
195 194 200 206 212 218 221 221 225 224 221 220 219 223 223 220 218 213 205 203 177 164 164 166 167 170 175 185 194 195 185 210 250 259 252 239 235 236 239 233 232 235
195 200 206 212 213 218 216 217 222 224 222 223 218 220 220 219 217 214 208 176 190 196 190 177 184 199 202 203 211 212 211 209 217 235 250 255 246 239 239 232 225 228
84 84 71 53 28 5 334 284 238 225 227 227 216 217 221 222 220 215 187 176 197 211 206 188 193 199 206 213 218 226 227 235 233 229 234 243 249 246 239 236 229 227
129 117 113 114 116 100 93 12 336 312 272 239 228 225 224 224 222 193 173 185 199 208 203 196 199 208 206 207 213 223 217 238 243 244 239 238 245 249 246 238 237 232
146 147 145 152 155 167 186 185 231 322 320 283 250 235 233 222 207 193 186 188 191 200 199 195 203 210 215 214 211 206 213 228 240 247 248 249 244 249 252 246 240 234
162 162 161 161 165 171 187 189 181 182 274 297 278 251 234 221 204 198 198 193 193 194 199 201 203 209 211 208 209 212 210 219 234 249 255 256 252 246 251 252 247 240
166 167 168 157 158 168 177 184 173 161 179 203 254 300 289 247 207 202 196 192 194 197 201 205 212 215 205 205 210 215 218 219 226 237 249 251 251 251 252 256 257 251
168 158 152 163 182 184 178 161 152 162 187 166 171 196 89 48 349 343 338 326 247 204 200 211 216 213 203 201 207 220 242 253 244 240 242 247 245 245 249 255 260 256
162 145 163 179 185 179 163 165 169 167 165 152 59 46 81 109 118 117 125 112 347 314 283 238 209 35 17 347 328 291 239 226 233 236 235 237 237 243 260 343 324 310
110 151 187 199 191 165 144 150 143 105 74 69 93 110 134 159 168 174 190 200 191 195 214 31 29 18 13 350 320 282 260 232 227 227 225 218 227 243 245 224 230 239
94 152 210 223 201 117 83 55 34 34 25 14 48 143 145 147 23 20 24 36 51 74 80 79 310 359 333 289 275 269 267 240 213 194 113 80 251 239 247 258 262 263
11 329 254 255 152 109 95 85 102 102 169 250 235 209 124 91 101 135 101 89 101 115 131 124 172 309 323 320 306 301 285 256 234 171 177 195 214 211 206 240 239 234
137 101 313 317 357 70 113 162 176 151 195 222 224 173 150 182 146 84 55 31 49 95 190 174 115 15 1 351 349 347 328 291 278 237 219 221 213 195 216 230 229 222
299 299 112 41 25 80 72 108 184 161 180 211 180 135 142 130 100 65 74 104 122 126 48 67 57 13 15 6 12 9 0 309 280 252 222 220 209 202 192 189 212 230
315 356 8 47 80 104 124 154 181 143 166 183 186 163 153 132 115 121 145 109 56 55 60 65 71 34 32 26 28 24 10 359 334 286 242 229 219 193 141 98 95 85